{"data":{"norad_id":65964,"intl_designator":"2025-228T","name":"KUIPER-00138","alt_names":[],"object_type":"PAYLOAD","status":"ACTIVE","operator":null,"country":"US","launch_date":"2025-10-14","launch_site_code":"AFETR","launch_vehicle":null,"mission":null,"orbit_class":"UNKNOWN","rcs_meters":null,"size_class":null,"mass_kg":null,"dimensions":null,"purposes":[],"wikipedia_slug":null,"has_3d_model":false,"image_url":null,"decayed_at":null,"tle_current":{"epoch":"2026-09-20T02:22:21.811584Z","epoch_age_seconds":175119,"freshness":"STALE","line1":"1 65964U 25228T   26263.09886356 -.00000397  00000+0 -23009-4 0  9991","line2":"2 65964  51.8986 203.3836 0000903  74.2233 285.8829 14.79927138 52265","mean_motion":14.79927138,"eccentricity":9.03e-5,"inclination_deg":51.8986,"raan_deg":203.3836,"arg_perigee_deg":74.2233,"mean_anomaly_deg":285.8829,"bstar":-2.3009e-5,"rev_number":5226,"period_min":97.302087584261,"perigee_km":628.92133960806,"apogee_km":630.18692862688,"semimajor_km":7007.6911341175,"source":"CELESTRAK","updated_at":"2026-09-21T09:00:15.683144Z"}}}